Regional Weather Roundup
Issued by NWS Northern Indiana

Home | Current Version | Previous Version | Graphics & Text | Print | Product List | Glossary On
Versions: 1 2 3 4 5 6 7 8 9 10 11 12 13 14 15 16 17 18 19 20 21 22 23 24 25 26 27 28 29 30 31 32 33 34 35 36 37 38 39 40 41 42 43 44 45 46 47 48 49 50
102
ASUS43 KIWX 290900
RWRIWX

KIWX WEATHER ROUNDUP
NATIONAL WEATHER SERVICE NORTHERN INDIANA
500 AM EDT FRI APR 29 2016

NOTE: "FAIR" INDICATES FEW OR NO CLOUDS BELOW 12,000 FEET WITH NO
SIGNIFICANT WEATHER AND/OR OBSTRUCTIONS TO VISIBILITY.

* THESE STATIONS ARE NOT UNDER NWS QUALITY CONTROL. THEY ALSO MAY NOT
  REPORT WEATHER SUCH AS PRECIPITATION OR FOG.

INZ001>027-291000-
NORTHERN INDIANA

CITY           SKY/WX    TMP DP  RH WIND       PRES   REMARKS
SOUTH BEND     CLOUDY    46  37  71 SE8       30.00S
GOSHEN         CLOUDY    46  39  76 E5        30.00R
ANGOLA*        CLOUDY    45  30  57 E5        30.00S
FORT WAYNE     CLOUDY    46  40  79 E5        30.01S
PERU/GRISSOM   CLOUDY    48  46  92 SE3       29.97F

$$
INZ028>050-291000-
CENTRAL INDIANA

CITY           SKY/WX    TMP DP  RH WIND       PRES   REMARKS
LAFAYETTE      PTCLDY    48  47  96 W3        30.00R FOG
KOKOMO*        CLOUDY    48  43  81 E6        29.98S
MUNCIE*        CLOUDY    48  45  89 E6        29.98S FOG
INDIANAPOLIS   PTCLDY    50  46  86 W9        29.99R

$$
MIZ043>046-050>051-056>058-064>065-071>073-077>080-291000-
SOUTHWEST LOWER MICHIGAN

CITY           SKY/WX    TMP DP  RH WIND       PRES   REMARKS
BATTLE CREEK   CLOUDY    43  37  79 NE6       30.01S
BENTON HARBOR  CLOUDY    46  39  76 SE6       30.01R
COLDWATER*     CLOUDY    45  38  75 NE3       30.00S
HILLSDALE*     CLOUDY    44  38  79 CALM      30.00S
HOLLAND        CLOUDY    43  36  76 E6        30.03R
GRAND RAPIDS   CLOUDY    42  35  76 E6        30.03S
KALAMAZOO      CLOUDY    45  37  73 CALM      30.01S
STURGIS*       CLOUDY    45  36  70 E5        29.99S
THREE RIVERS*  CLOUDY    46  38  75 E5        30.01S

$$
OHZ001>008-015>018-024>025-291000-
NORTHWEST OHIO

CITY           SKY/WX    TMP DP  RH WIND       PRES   REMARKS
DEFIANCE       CLOUDY    48  38  68 N3        30.01S
FINDLAY        CLOUDY    45  40  82 N9        29.98S
TOLEDO EXPRESS CLOUDY    46  35  65 NE6       30.00S
TOLEDO METCALF CLOUDY    46  35  65 NE5       30.01S
LIMA           CLOUDY    45  43  93 N5        29.98S

$$
AND FOR LAKE MICHIGAN COASTAL AND OPEN LAKE BUOY OBSERVATIONS

STATION/POSITION TEMP    WIND        PRES    VSBY  WAVE
                 AIR SEA DIR/SP/G                  HT/PER
                 (F)     (DEG/KT/KT) (MB)    (MI)  (FT/S)
CALUMET HARBOR    44     290/  3/  6 1015.3F
MICHIGAN CITY     43     230/ 12/ 13   N/A
BURNS HARBOR      44     310/  6/  8 1016.3F
SAINT JOSEPH      48      CALM  /  3 1016.3S
SOUTH LAKE BUOY   41 40   60/  8/  8 1016.3          1/ 4
4 MI NW BRIDGMAN  49 47  190/  8/ 10   N/A           2/ 4

$$
&&




USA.gov is the U.S. government's official web portal to all federal, state and local government web resources and services.